Regional Weather Roundup
Issued by NWS Glasgow, MT

Home | Current Version | Previous Version | Text Only | Print | Product List | Glossary On
Versions: 1 2 3 4 5 6 7 8 9 10 11 12 13 14 15 16 17 18 19 20 21 22 23 24 25 26 27 28 29 30 31 32 33 34 35 36 37 38 39 40 41 42 43 44 45 46 47 48 49 50
000
ASUS45 KGGW 040615
RWRGGW
HOURLY REGIONAL WEATHER ROUNDUP FOR NORTHEAST MONTANA
NATIONAL WEATHER SERVICE GLASGOW MONTANA
1100 PM MST SAT DEC 03 2016

NOTE: "FAIR" INDICATES FEW OR NO CLOUDS BELOW 12,000 FEET WITH NO
SIGNIFICANT WEATHER AND/OR OBSTRUCTIONS TO VISISBILITY.

NORTHEAST MONTANA


CITY           SKY/WX    TMP DP  RH WIND       PRES   REMARKS
GLASGOW        CLEAR     27  23  85 W7        29.83R
6HR MIN TEMP:  27; 6HR MAX TEMP:  37;

PLENTYWOOD       N/A     30  30 100 W10         N/A
WOLF POINT     CLEAR     29  26  89 W9        29.82S
JORDAN           N/A     20  16  84 W6        29.85S
WINNETT          N/A     33  20  58 W10G26      N/A
SIDNEY         MOCLDY    34  28  80 W10       29.81R
GLENDIVE       CLEAR     30  25  81 W13       29.84R
SCOBEY           N/A     32  25  76 W7        29.76S

FORT PECK REPORTS


CITY           SKY/WX    TMP DP  RH WIND       PRES   REMARKS
FORT PECK        N/A     32  28  85 W12         N/A
THE PINES        N/A     34  25  69 W2          N/A

SOUTHEAST MONTANA


CITY           SKY/WX    TMP DP  RH WIND       PRES   REMARKS
BILLINGS       CLOUDY    32  22  66 W10       29.94R
MILES CITY     PTCLDY    32  20  61 W9        29.87F
BAKER          MOCLDY    26  19  74 W12       29.86R
LIVINGSTON     MOCLDY    34  14  43 SW25G33   29.95S

CENTRAL MONTANA


CITY           SKY/WX    TMP DP  RH WIND       PRES   REMARKS
HAVRE          CLEAR     32  22  66 SW16G24   29.85F
LEWISTOWN      CLOUDY    29  17  61 SW12      29.88F
GREAT FALLS    CLOUDY    30  20  66 SW12      29.88F
CUT BANK       CLOUDY    32  21  64 W26G37    29.80F
HELENA         CLOUDY    36  20  52 CALM      29.96F
BUTTE          CLOUDY    29  14  53 W12G18    29.97F
BOZEMAN        CLOUDY    34  16  47 SW12      30.00S

WESTERN MONTANA


CITY           SKY/WX    TMP DP  RH WIND       PRES   REMARKS
MISSOULA       CLOUDY    33  30  88 CALM      30.04F
KALISPELL      NOT AVBL

NORTH DAKOTA


CITY           SKY/WX    TMP DP  RH WIND       PRES   REMARKS
WILLISTON      CLOUDY    35  29  78 W16       29.77R
DICKINSON      PTCLDY    30  25  81 W20       29.76R
MINOT          CLOUDY    32  30  92 SW9       29.70F
BISMARCK       CLOUDY    30  25  81 CALM      29.79S

SOUTHERN SASKATCHEWAN


CITY           SKY/WX    TMP DP  RH WIND       PRES   REMARKS
REGINA         CLOUDY    23  23 100 NW8       29.73S
ESTEVAN        NOT AVBL
SWIFT CURRENT  CLEAR     21  19  93 SW14      29.74S




USA.gov is the U.S. government's official web portal to all federal, state and local government web resources and services.